Darstellungsparameter: Aktuell verwendete Einstellungen:
Skalierung der Graphiken ... ?
xyx+y,   Skalierungsfaktor:      Skalierung: Modus: x, Faktor: 1
Darstellungszeitraum ... ?
Vom - - bis: - -   Zeitraum: 03.02.2019 - 02.02.2020
Min/Max/Avg-Anzeige ... ?
Zeige MMA aktuell
Zeige MMA Monat
Zeige MMA alles
Zeige --A aktuell
Zeige --A Monat
Zeige --A alles
Keine MMA-Anzeige
MMA:
Keine MMA-Graphiken
MMA-Basis: 03.02.2019 - 02.02.2020
Quicknavigation für Darstellung... ?
Tage:      1T, 2T, 3T, 5T -1T -2T -3T -5T +1T +2T +3T +5T
Wochen: 1W, 2W, 3W -1W -2W -3W +1W +2W +3W
Monate: 1M, 3M, 6M -1M -3M -6M +1M +3M +6M
Jahre:    1J, 3J, 5J, 10J -1J -3J -5J -10J +1J +3J +5J +10J
Nutze für die Darstellung ... ?
Originaldaten oder ...
Mittelwerte Minima Maxima auf...
Stundenbasis Tagesbasis Wochenbasis
Monatsbasis Jahresbasis      Datenbasis: Mittelwerte auf Tagesbasis
Darstellen als:
Statistik (Auto) Statistik J:M      Darstellung:
Zur Graphik,    zurück zur Übersicht aller Sensoren.
 
Tabellarische Datenbersicht: ?
 
Sensor: Nr:Datum:Temp:Feuchte:
Aussen-T/F 1 03-02-2019 00:00:00 1.86583 C 40.0750 %
2 04-02-2019 00:00:00 0.99417 C 40.5833 %
3 05-02-2019 00:00:00 3.66167 C 30.5917 %
4 06-02-2019 00:00:00 0.09417 C 46.8417 %
5 07-02-2019 00:00:00 4.26083 C 38.9917 %
6 08-02-2019 00:00:00 6.77417 C 31.6250 %
7 09-02-2019 00:00:00 8.02083 C 28.8667 %
8 10-02-2019 00:00:00 7.15083 C 39.6167 %
9 11-02-2019 00:00:00 4.03667 C 38.3917 %
10 12-02-2019 00:00:00 3.01917 C 38.2083 %
11 13-02-2019 00:00:00 0.96333 C 46.8167 %
12 14-02-2019 00:00:00 -0.46667 C 51.0250 %
13 15-02-2019 00:00:00 0.9925 C 45.0667 %
14 16-02-2019 00:00:00 1.9325 C 47.3750 %
15 17-02-2019 00:00:00 2.17333 C 49.1333 %
16 18-02-2019 00:00:00 2.31167 C 43.0500 %
17 19-02-2019 00:00:00 4.89 C 40.9750 %
18 20-02-2019 00:00:00 3.7725 C 45.5000 %
19 21-02-2019 00:00:00 5.655 C 46.3667 %
20 22-02-2019 00:00:00 9.27167 C 39.5167 %
21 23-02-2019 00:00:00 4.58167 C 33.2583 %
22 24-02-2019 00:00:00 2.29833 C 32.9417 %
23 25-02-2019 00:00:00 3.65667 C 31.8250 %
24 26-02-2019 00:00:00 4.75583 C 37.6333 %
25 27-02-2019 00:00:00 5.17417 C 38.9250 %
Sensor: Nr:Datum:Temp:Feuchte:
Aussen-T/F 26 28-02-2019 00:00:00 8.185 C 29.8833 %
27 01-03-2019 00:00:00 7.515 C 43.8250 %
28 02-03-2019 00:00:00 8.29333 C 34.1417 %
29 03-03-2019 00:00:00 10.72417 C 28.1417 %
30 04-03-2019 00:00:00 9.1575 C 27.8167 %
31 05-03-2019 00:00:00 6.32167 C 30.8917 %
32 06-03-2019 00:00:00 9.5125 C 32.3667 %
33 07-03-2019 00:00:00 9.61917 C 28.3833 %
34 08-03-2019 00:00:00 7.73167 C 28.8250 %
35 09-03-2019 00:00:00 10.01667 C 26.3333 %
36 10-03-2019 00:00:00 9.11083 C 30.1417 %
37 11-03-2019 00:00:00 4.19667 C 30.2417 %
38 12-03-2019 00:00:00 6.18083 C 27.8583 %
39 13-03-2019 00:00:00 5.6775 C 31.5250 %
40 14-03-2019 00:00:00 6.3325 C 38.0083 %
41 15-03-2019 00:00:00 9.61417 C 37.6917 %
42 16-03-2019 00:00:00 9.76833 C 35.9667 %
43 17-03-2019 00:00:00 8.19083 C 26.8333 %
44 18-03-2019 00:00:00 4.3225 C 36.6583 %
45 19-03-2019 00:00:00 3.115 C 40.3583 %
46 20-03-2019 00:00:00 4.81417 C 37.4250 %
47 21-03-2019 00:00:00 6.76333 C 35.7167 %
48 22-03-2019 00:00:00 8.43083 C 34.0750 %
49 23-03-2019 00:00:00 5.40167 C 40.0083 %
50 24-03-2019 00:00:00 5.90583 C 38.2167 %
Sensor: Nr:Datum:Temp:Feuchte:
Aussen-T/F 51 25-03-2019 00:00:00 4.41583 C 37.7583 %
52 26-03-2019 00:00:00 6.33417 C 32.9583 %
53 27-03-2019 00:00:00 6.36583 C 35.3083 %
54 28-03-2019 00:00:00 6.955 C 36.2417 %
55 29-03-2019 00:00:00 8.44167 C 38.7750 %
56 30-03-2019 00:00:00 10.07583 C 34.1833 %
57 31-03-2019 00:00:00 9.90957 C 33.8174 %
58 01-04-2019 00:00:00 8.9475 C 32.5750 %
59 02-04-2019 00:00:00 10.5425 C 29.3083 %
60 03-04-2019 00:00:00 7.865 C 38.6750 %
61 04-04-2019 00:00:00 5.56833 C 48.7000 %
62 05-04-2019 00:00:00 5.95417 C 48.0167 %
63 06-04-2019 00:00:00 9.88333 C 42.1917 %
64 07-04-2019 00:00:00 11.50833 C 36.8000 %
65 08-04-2019 00:00:00 12.34417 C 33.9167 %
66 09-04-2019 00:00:00 12.00333 C 40.7333 %
67 10-04-2019 00:00:00 10.585 C 23.8417 %
68 11-04-2019 00:00:00 6.52917 C 25.0583 %
69 12-04-2019 00:00:00 4.68167 C 20.0000 %
70 13-04-2019 00:00:00 3.585 C 24.4167 %
71 14-04-2019 00:00:00 5.23833 C 34.7917 %
72 15-04-2019 00:00:00 10.29167 C 25.8000 %
73 16-04-2019 00:00:00 10.91333 C 23.2000 %
74 17-04-2019 00:00:00 12.4 C 35.6083 %
75 18-04-2019 00:00:00 13.7675 C 28.5500 %
Sensor: Nr:Datum:Temp:Feuchte:
Aussen-T/F 76 19-04-2019 00:00:00 14.94917 C 24.5083 %
77 20-04-2019 00:00:00 14.60167 C 27.5833 %
78 21-04-2019 00:00:00 15.24333 C 24.6417 %
79 22-04-2019 00:00:00 14.7825 C 27.5667 %
80 23-04-2019 00:00:00 15.12667 C 20.1083 %
81 24-04-2019 00:00:00 15.10083 C 30.7083 %
82 25-04-2019 00:00:00 13.2425 C 38.0667 %
83 26-04-2019 00:00:00 11.8 C 32.0000 %
84 27-04-2019 00:00:00 9.01583 C 40.3667 %
85 28-04-2019 00:00:00 8.43333 C 30.9750 %
86 29-04-2019 00:00:00 8.62417 C 38.4083 %
87 30-04-2019 00:00:00 13.94583 C 26.0833 %
88 01-05-2019 00:00:00 13.03833 C 29.5000 %
89 02-05-2019 00:00:00 12.08333 C 31.3667 %
90 03-05-2019 00:00:00 11.20833 C 25.1500 %
91 04-05-2019 00:00:00 6.17583 C 33.4500 %
92 05-05-2019 00:00:00 6.66333 C 32.0417 %
93 06-05-2019 00:00:00 7.6075 C 30.6583 %
94 07-05-2019 00:00:00 9.645 C 28.6167 %
95 08-05-2019 00:00:00 9.105 C 38.9750 %
96 09-05-2019 00:00:00 11.085 C 36.9583 %
97 10-05-2019 00:00:00 12.44538 C 33.3866 %
98 11-05-2019 00:00:00 9.52833 C 47.9417 %
99 12-05-2019 00:00:00 9.4 C 31.3083 %
100 13-05-2019 00:00:00 9.985 C 30.9083 %
Sensor: Nr:Datum:Temp:Feuchte:
Aussen-T/F 101 14-05-2019 00:00:00 9.66333 C 26.4333 %
102 15-05-2019 00:00:00 10.57083 C 24.3500 %
103 16-05-2019 00:00:00 10.61167 C 23.0917 %
104 17-05-2019 00:00:00 11.4775 C 39.7250 %
105 18-05-2019 00:00:00 14.67167 C 39.3500 %
106 19-05-2019 00:00:00 15.91083 C 38.3750 %
107 20-05-2019 00:00:00 13.655 C 37.8667 %
108 21-05-2019 00:00:00 11.88167 C 45.6167 %
109 22-05-2019 00:00:00 13.2875 C 33.7833 %
110 23-05-2019 00:00:00 15.22667 C 33.1417 %
111 24-05-2019 00:00:00 17.24 C 28.7500 %
112 25-05-2019 00:00:00 15.89917 C 22.8167 %
113 26-05-2019 00:00:00 16.26667 C 29.2667 %
114 27-05-2019 00:00:00 14.66667 C 40.5417 %
115 28-05-2019 00:00:00 14.29917 C 38.6250 %
116 29-05-2019 00:00:00 15.28667 C 25.9000 %
117 30-05-2019 00:00:00 15.82833 C 28.8250 %
118 31-05-2019 00:00:00 19.45583 C 30.4167 %
119 01-06-2019 00:00:00 20.21917 C 30.3583 %
120 02-06-2019 00:00:00 22.16417 C 30.0500 %
121 03-06-2019 00:00:00 21.1475 C 27.1667 %
122 04-06-2019 00:00:00 21.80333 C 28.3333 %
123 05-06-2019 00:00:00 23.57917 C 22.7833 %
124 06-06-2019 00:00:00 16.14167 C 28.3667 %
125 07-06-2019 00:00:00 16.10083 C 29.5250 %
Sensor: Nr:Datum:Temp:Feuchte:
Aussen-T/F 126 08-06-2019 00:00:00 16.40917 C 20.2667 %
127 09-06-2019 00:00:00 16.72333 C 27.7667 %
128 10-06-2019 00:00:00 19.705 C 23.4750 %
129 11-06-2019 00:00:00 17.38 C 32.4667 %
130 12-06-2019 00:00:00 16.405 C 33.2917 %
131 13-06-2019 00:00:00 16.27917 C 34.4333 %
132 14-06-2019 00:00:00 18.17 C 35.6583 %
133 15-06-2019 00:00:00 19.72583 C 33.0250 %
134 16-06-2019 00:00:00 19.94417 C 24.9167 %
135 17-06-2019 00:00:00 19.5125 C 29.1250 %
136 18-06-2019 00:00:00 22.02333 C 27.1333 %
137 19-06-2019 00:00:00 22.62583 C 27.6917 %
138 20-06-2019 00:00:00 20 C 28.0167 %
139 21-06-2019 00:00:00 19.3425 C 27.3333 %
140 22-06-2019 00:00:00 19.82667 C 26.6167 %
141 23-06-2019 00:00:00 22.3125 C 27.3750 %
142 24-06-2019 00:00:00 24.96167 C 26.2167 %
143 25-06-2019 00:00:00 26.83333 C 24.5583 %
144 26-06-2019 00:00:00 27.635 C 23.0833 %
145 27-06-2019 00:00:00 25.18917 C 20.6083 %
146 28-06-2019 00:00:00 22.44833 C 23.4333 %
147 29-06-2019 00:00:00 24.38417 C 22.1750 %
148 30-06-2019 00:00:00 26.0575 C 22.2333 %
149 01-07-2019 00:00:00 23.3825 C 20.0000 %
150 02-07-2019 00:00:00 19.63333 C 21.8667 %
Sensor: Nr:Datum:Temp:Feuchte:
Aussen-T/F 151 03-07-2019 00:00:00 18.14583 C 22.9833 %
152 04-07-2019 00:00:00 18.95917 C 21.7583 %
153 05-07-2019 00:00:00 21.28 C 20.0000 %
154 06-07-2019 00:00:00 21.86 C 21.2917 %
155 07-07-2019 00:00:00 17.9975 C 24.5833 %
156 08-07-2019 00:00:00 14.77583 C 24.3917 %
157 09-07-2019 00:00:00 15.65583 C 24.6667 %
158 10-07-2019 00:00:00 17.64083 C 24.2083 %
159 11-07-2019 00:00:00 17.65083 C 31.2583 %
160 12-07-2019 00:00:00 17.16583 C 43.6333 %
161 13-07-2019 00:00:00 17.9575 C 34.1250 %
162 14-07-2019 00:00:00 17.12917 C 26.6667 %
163 15-07-2019 00:00:00 16.56667 C 21.0917 %
164 16-07-2019 00:00:00 16.26 C 28.0333 %
165 17-07-2019 00:00:00 17.56833 C 29.2083 %
166 18-07-2019 00:00:00 19.38333 C 28.1917 %
167 19-07-2019 00:00:00 20.12667 C 31.9750 %
168 20-07-2019 00:00:00 21.81667 C 30.3083 %
169 21-07-2019 00:00:00 22.37333 C 25.8833 %
170 22-07-2019 00:00:00 22.7225 C 26.2833 %
171 23-07-2019 00:00:00 25.34083 C 25.5333 %
172 24-07-2019 00:00:00 27.1975 C 24.2750 %
173 25-07-2019 00:00:00 28.90167 C 21.7333 %
174 26-07-2019 00:00:00 27.54417 C 21.2500 %
175 27-07-2019 00:00:00 23.4375 C 26.6833 %
Sensor: Nr:Datum:Temp:Feuchte:
Aussen-T/F 176 28-07-2019 00:00:00 19.93083 C 38.1333 %
177 29-07-2019 00:00:00 21.45583 C 29.3333 %
178 30-07-2019 00:00:00 22.35833 C 26.7167 %
179 31-07-2019 00:00:00 21.48417 C 20.5333 %
180 01-08-2019 00:00:00 19.83417 C 22.9750 %
181 02-08-2019 00:00:00 20.8775 C 22.8500 %
182 03-08-2019 00:00:00 20.77167 C 24.6333 %
183 04-08-2019 00:00:00 21.00667 C 28.3000 %
184 05-08-2019 00:00:00 22.56833 C 24.9167 %
185 06-08-2019 00:00:00 20.0075 C 30.3333 %
186 07-08-2019 00:00:00 19.10167 C 41.3833 %
187 08-08-2019 00:00:00 20.55667 C 30.6417 %
188 09-08-2019 00:00:00 19.73833 C 39.4583 %
189 10-08-2019 00:00:00 20.72917 C 37.6833 %
190 11-08-2019 00:00:00 17.03333 C 35.9000 %
191 12-08-2019 00:00:00 16.51583 C 38.9833 %
192 13-08-2019 00:00:00 16.10833 C 35.2833 %
193 14-08-2019 00:00:00 16.6875 C 34.0417 %
194 15-08-2019 00:00:00 17.20583 C 40.0250 %
195 16-08-2019 00:00:00 17.84 C 34.2250 %
196 17-08-2019 00:00:00 17.89333 C 38.0750 %
197 18-08-2019 00:00:00 19.71833 C 44.5000 %
198 19-08-2019 00:00:00 18.45167 C 33.8417 %
199 20-08-2019 00:00:00 15.91167 C 33.3250 %
200 21-08-2019 00:00:00 16.52917 C 33.4750 %
Sensor: Nr:Datum:Temp:Feuchte:
Aussen-T/F 201 22-08-2019 00:00:00 17.12333 C 32.3667 %
202 23-08-2019 00:00:00 18.31667 C 31.5083 %
203 24-08-2019 00:00:00 19.36333 C 30.9833 %
204 25-08-2019 00:00:00 21.54583 C 29.8917 %
205 26-08-2019 00:00:00 22.17 C 33.4833 %
206 27-08-2019 00:00:00 22.70333 C 35.1667 %
207 28-08-2019 00:00:00 23.4425 C 30.4583 %
208 29-08-2019 00:00:00 22.20333 C 28.3583 %
209 30-08-2019 00:00:00 21.07 C 29.2583 %
210 31-08-2019 00:00:00 21.975 C 30.7583 %
211 01-09-2019 00:00:00 18.8525 C 26.8333 %
212 02-09-2019 00:00:00 15.49333 C 28.2000 %
213 03-09-2019 00:00:00 15.72917 C 28.0833 %
214 04-09-2019 00:00:00 16.9525 C 33.9667 %
215 05-09-2019 00:00:00 15.59 C 26.2917 %
216 06-09-2019 00:00:00 13.58917 C 31.1917 %
217 07-09-2019 00:00:00 12.6975 C 39.5000 %
218 08-09-2019 00:00:00 12.7439 C 48.5935 %
219 09-09-2019 00:00:00 15.23733 C 38.6667 %
220 10-09-2019 00:00:00 12.20486 C 22.8264 %
221 11-09-2019 00:00:00 13.35556 C 20.8472 %
222 12-09-2019 00:00:00 19.325 C 20.0000 %
223 13-09-2019 00:00:00 17.86806 C 20.1111 %
224 14-09-2019 00:00:00 15.93333 C 22.4375 %
225 15-09-2019 00:00:00 15.65694 C 21.2778 %
Sensor: Nr:Datum:Temp:Feuchte:
Aussen-T/F 226 16-09-2019 00:00:00 16.21389 C 20.0000 %
227 17-09-2019 00:00:00 15.87708 C 20.0000 %
228 18-09-2019 00:00:00 11.47361 C 20.7917 %
229 19-09-2019 00:00:00 10.53333 C 21.8194 %
230 20-09-2019 00:00:00 10.80486 C 20.8472 %
231 21-09-2019 00:00:00 12.45278 C 20.6597 %
232 22-09-2019 00:00:00 14.78542 C 20.7500 %
233 23-09-2019 00:00:00 16.6875 C 22.1528 %
234 24-09-2019 00:00:00 13.94306 C 26.6319 %
235 25-09-2019 00:00:00 15.31806 C 25.0417 %
236 26-09-2019 00:00:00 16.10903 C 26.0000 %
237 27-09-2019 00:00:00 16.23333 C 23.7708 %
238 28-09-2019 00:00:00 15.40208 C 22.5833 %
239 29-09-2019 00:00:00 16.05972 C 21.6597 %
240 30-09-2019 00:00:00 15.48194 C 21.1319 %
241 01-10-2019 00:00:00 15.84375 C 23.4931 %
242 02-10-2019 00:00:00 12.57569 C 23.6111 %
243 03-10-2019 00:00:00 9.35625 C 27.6944 %
244 04-10-2019 00:00:00 10.03681 C 31.8403 %
245 05-10-2019 00:00:00 10.32986 C 26.5903 %
246 06-10-2019 00:00:00 7.85764 C 34.1250 %
247 07-10-2019 00:00:00 9.80764 C 31.8819 %
248 08-10-2019 00:00:00 12.35833 C 31.0694 %
249 09-10-2019 00:00:00 11.56667 C 27.7431 %
250 10-10-2019 00:00:00 11.49097 C 26.2153 %
Sensor: Nr:Datum:Temp:Feuchte:
Aussen-T/F 251 11-10-2019 00:00:00 12.41458 C 28.8194 %
252 12-10-2019 00:00:00 13.21111 C 29.6875 %
253 13-10-2019 00:00:00 16.35417 C 28.4722 %
254 14-10-2019 00:00:00 15.8125 C 27.6528 %
255 15-10-2019 00:00:00 13.94028 C 29.8611 %
256 16-10-2019 00:00:00 12.42153 C 29.2917 %
257 17-10-2019 00:00:00 14.32708 C 27.4167 %
258 18-10-2019 00:00:00 12.3125 C 29.7292 %
259 19-10-2019 00:00:00 12.78194 C 28.2083 %
260 20-10-2019 00:00:00 13.0875 C 34.7778 %
261 21-10-2019 00:00:00 13.30486 C 29.2014 %
262 22-10-2019 00:00:00 11.45 C 27.8819 %
263 23-10-2019 00:00:00 10.68403 C 31.1181 %
264 24-10-2019 00:00:00 13.85208 C 27.9236 %
265 25-10-2019 00:00:00 13.1625 C 24.9444 %
266 26-10-2019 00:00:00 12.72639 C 27.5417 %
267 27-10-2019 00:00:00 9.68467 C 30.8733 %
268 28-10-2019 00:00:00 5.91597 C 35.2014 %
269 29-10-2019 00:00:00 6.21181 C 29.3264 %
270 30-10-2019 00:00:00 2.93333 C 34.5347 %
271 31-10-2019 00:00:00 1.41875 C 34.8333 %
272 01-11-2019 00:00:00 5.44792 C 36.7292 %
273 02-11-2019 00:00:00 12.8125 C 27.6458 %
274 03-11-2019 00:00:00 11.45069 C 29.7639 %
275 04-11-2019 00:00:00 9.88542 C 30.2153 %
Sensor: Nr:Datum:Temp:Feuchte:
Aussen-T/F 276 05-11-2019 00:00:00 9.25069 C 27.4306 %
277 06-11-2019 00:00:00 8.33542 C 34.7014 %
278 07-11-2019 00:00:00 7.30278 C 33.8333 %
279 08-11-2019 00:00:00 4.29028 C 37.7153 %
280 09-11-2019 00:00:00 4.26806 C 33.1111 %
281 10-11-2019 00:00:00 2.51319 C 34.9861 %
282 11-11-2019 00:00:00 4.2 C 27.4792 %
283 12-11-2019 00:00:00 5.41667 C 25.4792 %
284 13-11-2019 00:00:00 4.93472 C 22.9861 %
285 14-11-2019 00:00:00 4.86042 C 26.9861 %
286 15-11-2019 00:00:00 4.08472 C 26.3333 %
287 16-11-2019 00:00:00 1.19444 C 38.8125 %
288 17-11-2019 00:00:00 2.39861 C 40.2708 %
289 18-11-2019 00:00:00 3.51667 C 36.2847 %
290 19-11-2019 00:00:00 3.06736 C 36.5833 %
291 20-11-2019 00:00:00 0.75972 C 37.8403 %
292 21-11-2019 00:00:00 1.18951 C 39.3846 %
293 22-11-2019 00:00:00 3.65972 C 35.6806 %
294 23-11-2019 00:00:00 4.64653 C 33.3889 %
295 24-11-2019 00:00:00 1.99861 C 41.4722 %
296 25-11-2019 00:00:00 4.16319 C 39.3681 %
297 26-11-2019 00:00:00 7.75903 C 34.8472 %
298 27-11-2019 00:00:00 9.72083 C 30.6875 %
299 28-11-2019 00:00:00 10.55833 C 22.1319 %
300 29-11-2019 00:00:00 5.75486 C 30.7639 %
Sensor: Nr:Datum:Temp:Feuchte:
Aussen-T/F 301 30-11-2019 00:00:00 0.48194 C 42.0972 %
302 01-12-2019 00:00:00 1.14236 C 33.0139 %
303 02-12-2019 00:00:00 1.20556 C 36.2986 %
304 03-12-2019 00:00:00 3.97431 C 39.2292 %
305 04-12-2019 00:00:00 0.41389 C 41.6111 %
306 05-12-2019 00:00:00 -2.03194 C 42.0972 %
307 06-12-2019 00:00:00 2.6125 C 34.4722 %
308 07-12-2019 00:00:00 8.20694 C 27.7292 %
309 08-12-2019 00:00:00 9.69931 C 24.2778 %
310 09-12-2019 00:00:00 7.09444 C 23.9722 %
311 10-12-2019 00:00:00 2.37361 C 34.0000 %
312 11-12-2019 00:00:00 3.12569 C 39.3056 %
313 12-12-2019 00:00:00 2.64931 C 37.2500 %
314 13-12-2019 00:00:00 3.25278 C 34.0069 %
315 14-12-2019 00:00:00 6.22222 C 28.0625 %
316 15-12-2019 00:00:00 7.24792 C 30.8958 %
317 16-12-2019 00:00:00 7.47361 C 39.2986 %
318 17-12-2019 00:00:00 9.69514 C 31.9653 %
319 18-12-2019 00:00:00 6.95069 C 37.4792 %
320 19-12-2019 00:00:00 4.60972 C 40.5417 %
321 20-12-2019 00:00:00 6.87778 C 35.7847 %
322 21-12-2019 00:00:00 6.42778 C 32.4306 %
323 22-12-2019 00:00:00 7.57917 C 31.0556 %
324 23-12-2019 00:00:00 7.34861 C 28.6111 %
325 24-12-2019 00:00:00 7.20278 C 29.9097 %
Sensor: Nr:Datum:Temp:Feuchte:
Aussen-T/F 326 25-12-2019 00:00:00 6.91944 C 32.8333 %
327 26-12-2019 00:00:00 4.25278 C 40.6250 %
328 27-12-2019 00:00:00 4.41181 C 36.8819 %
329 28-12-2019 00:00:00 -1.22431 C 42.5000 %
330 29-12-2019 00:00:00 -2.07708 C 39.8819 %
331 30-12-2019 00:00:00 -1.99931 C 39.1319 %
332 31-12-2019 00:00:00 -0.41736 C 39.5556 %
333 01-01-2020 00:00:00 -0.10764 C 41.3403 %
334 02-01-2020 00:00:00 0.98958 C 39.7014 %
335 03-01-2020 00:00:00 7.00972 C 33.4653 %
336 04-01-2020 00:00:00 4.78264 C 32.5903 %
337 05-01-2020 00:00:00 5.21806 C 35.8750 %
338 06-01-2020 00:00:00 2.11667 C 38.1667 %
339 07-01-2020 00:00:00 4.43611 C 34.6944 %
340 08-01-2020 00:00:00 7.71389 C 34.4167 %
341 09-01-2020 00:00:00 10.33542 C 35.2292 %
342 10-01-2020 00:00:00 8.27917 C 30.8958 %
343 11-01-2020 00:00:00 3.61806 C 33.7639 %
344 12-01-2020 00:00:00 4.57083 C 30.3889 %
345 13-01-2020 00:00:00 5.88472 C 35.0903 %
346 14-01-2020 00:00:00 9.28264 C 24.1181 %
347 15-01-2020 00:00:00 10.27083 C 23.7500 %
348 16-01-2020 00:00:00 7.07569 C 40.1944 %
349 17-01-2020 00:00:00 5.27986 C 39.1944 %
350 18-01-2020 00:00:00 3.79028 C 32.6042 %
Sensor: Nr:Datum:Temp:Feuchte:
Aussen-T/F 351 19-01-2020 00:00:00 3.01389 C 40.8194 %
352 20-01-2020 00:00:00 1.64861 C 39.3889 %
353 21-01-2020 00:00:00 -2.675 C 44.7986 %
354 22-01-2020 00:00:00 -1.95347 C 44.7153 %
355 23-01-2020 00:00:00 0.53819 C 43.6458 %
356 24-01-2020 00:00:00 0.81319 C 35.7222 %
357 25-01-2020 00:00:00 1.99236 C 39.2014 %
358 26-01-2020 00:00:00 2.13056 C 41.5625 %
359 27-01-2020 00:00:00 5.48542 C 39.8264 %
360 28-01-2020 00:00:00 5.07708 C 30.3750 %
361 29-01-2020 00:00:00 4.20764 C 29.8611 %
362 30-01-2020 00:00:00 7.57569 C 29.5694 %
363 31-01-2020 00:00:00 12.86181 C 27.9167 %
364 01-02-2020 00:00:00 11.16597 C 32.0972 %
365 02-02-2020 00:00:00 9.925 C 31.1319 %
Sensor: Nr:Datum:Temp:Feuchte:
G-T/H 1 03-02-2019 00:00:00 6.98667 C 74.3417 %
2 04-02-2019 00:00:00 6.68333 C 73.8083 %
3 05-02-2019 00:00:00 7.12 C 74.5083 %
4 06-02-2019 00:00:00 6.9875 C 73.4333 %
5 07-02-2019 00:00:00 7.0025 C 74.8750 %
6 08-02-2019 00:00:00 7.93833 C 76.1083 %
7 09-02-2019 00:00:00 8.85917 C 76.1583 %
8 10-02-2019 00:00:00 9.2225 C 75.9667 %
9 11-02-2019 00:00:00 8.8125 C 75.1083 %
10 12-02-2019 00:00:00 8.09167 C 74.2167 %
11 13-02-2019 00:00:00 7.47583 C 73.5000 %
12 14-02-2019 00:00:00 6.95583 C 72.5083 %
13 15-02-2019 00:00:00 6.6825 C 71.6250 %
14 16-02-2019 00:00:00 6.53917 C 73.3083 %
15 17-02-2019 00:00:00 6.63667 C 74.1417 %
16 18-02-2019 00:00:00 6.65583 C 74.3000 %
17 19-02-2019 00:00:00 7.19417 C 75.8083 %
18 20-02-2019 00:00:00 7.495 C 75.5500 %
19 21-02-2019 00:00:00 7.76167 C 75.7333 %
20 22-02-2019 00:00:00 9.21417 C 77.2250 %
21 23-02-2019 00:00:00 9.20583 C 74.8917 %
22 24-02-2019 00:00:00 8.01917 C 72.1333 %
23 25-02-2019 00:00:00 7.5975 C 71.6250 %
24 26-02-2019 00:00:00 7.74083 C 71.5500 %
25 27-02-2019 00:00:00 6.63667 C 68.6917 %
Sensor: Nr:Datum:Temp:Feuchte:
G-T/H 26 28-02-2019 00:00:00 8.11917 C 73.1500 %
27 01-03-2019 00:00:00 9.37083 C 74.7583 %
28 02-03-2019 00:00:00 9.69333 C 72.8750 %
29 03-03-2019 00:00:00 10.36917 C 73.5083 %
30 04-03-2019 00:00:00 10.60917 C 73.1083 %
31 05-03-2019 00:00:00 9.71 C 71.6083 %
32 06-03-2019 00:00:00 9.71 C 73.4333 %
33 07-03-2019 00:00:00 10.48417 C 73.6500 %
34 08-03-2019 00:00:00 10.0575 C 72.7250 %
35 09-03-2019 00:00:00 10.17167 C 73.4333 %
36 10-03-2019 00:00:00 10.60917 C 71.4667 %
37 11-03-2019 00:00:00 9.44833 C 67.3667 %
38 12-03-2019 00:00:00 8.92417 C 70.4667 %
39 13-03-2019 00:00:00 9.345 C 71.3250 %
40 14-03-2019 00:00:00 9.13333 C 72.3750 %
41 15-03-2019 00:00:00 10.055 C 74.0583 %
42 16-03-2019 00:00:00 10.57417 C 72.1333 %
43 17-03-2019 00:00:00 9.70583 C 61.2083 %
44 18-03-2019 00:00:00 6.8675 C 62.4667 %
45 19-03-2019 00:00:00 6.02333 C 59.7583 %
46 20-03-2019 00:00:00 7.52333 C 64.5167 %
47 21-03-2019 00:00:00 9.29167 C 60.4917 %
48 22-03-2019 00:00:00 10.14833 C 61.3250 %
49 23-03-2019 00:00:00 10.15917 C 64.7250 %
50 24-03-2019 00:00:00 9.54833 C 67.2167 %
Sensor: Nr:Datum:Temp:Feuchte:
G-T/H 51 25-03-2019 00:00:00 9.15583 C 67.9000 %
52 26-03-2019 00:00:00 9.0525 C 69.7250 %
53 27-03-2019 00:00:00 9.47917 C 69.9333 %
54 28-03-2019 00:00:00 9.49583 C 69.9417 %
55 29-03-2019 00:00:00 10.2825 C 66.2583 %
56 30-03-2019 00:00:00 9.79667 C 60.6083 %
57 31-03-2019 00:00:00 11.2313 C 64.9130 %
58 01-04-2019 00:00:00 11.50333 C 60.3833 %
59 02-04-2019 00:00:00 11.2875 C 63.6333 %
60 03-04-2019 00:00:00 11.49833 C 67.0000 %
61 04-04-2019 00:00:00 10.56333 C 67.8833 %
62 05-04-2019 00:00:00 9.87333 C 68.5417 %
63 06-04-2019 00:00:00 10.76333 C 69.0417 %
64 07-04-2019 00:00:00 11.4925 C 68.0667 %
65 08-04-2019 00:00:00 12.30917 C 70.6833 %
66 09-04-2019 00:00:00 12.2875 C 74.7333 %
67 10-04-2019 00:00:00 12.35917 C 56.9917 %
68 11-04-2019 00:00:00 10.73083 C 48.4917 %
69 12-04-2019 00:00:00 9.57417 C 46.6333 %
70 13-04-2019 00:00:00 9.48583 C 55.2583 %
71 14-04-2019 00:00:00 9.175 C 58.5167 %
72 15-04-2019 00:00:00 10.07667 C 62.0833 %
73 16-04-2019 00:00:00 11.07083 C 62.2083 %
74 17-04-2019 00:00:00 12.33417 C 65.8333 %
75 18-04-2019 00:00:00 13.09417 C 62.0833 %
Sensor: Nr:Datum:Temp:Feuchte:
G-T/H 76 19-04-2019 00:00:00 14.9125 C 51.5500 %
77 20-04-2019 00:00:00 15.6775 C 48.0417 %
78 21-04-2019 00:00:00 16.29 C 47.3167 %
79 22-04-2019 00:00:00 15.22333 C 52.2417 %
80 23-04-2019 00:00:00 15.61417 C 53.2333 %
81 24-04-2019 00:00:00 15.37833 C 59.4167 %
82 25-04-2019 00:00:00 14.5575 C 61.5833 %
83 26-04-2019 00:00:00 14.28667 C 64.1250 %
84 27-04-2019 00:00:00 13.445 C 64.1833 %
85 28-04-2019 00:00:00 12.45 C 64.1833 %
86 29-04-2019 00:00:00 11.95083 C 63.4083 %
87 30-04-2019 00:00:00 13.89833 C 57.8083 %
88 01-05-2019 00:00:00 14.135 C 60.2833 %
89 02-05-2019 00:00:00 13.82333 C 62.1750 %
90 03-05-2019 00:00:00 13.86417 C 59.4750 %
91 04-05-2019 00:00:00 12.72083 C 59.0083 %
92 05-05-2019 00:00:00 11.31667 C 59.7917 %
93 06-05-2019 00:00:00 11.38833 C 61.2833 %
94 07-05-2019 00:00:00 11.88083 C 62.6250 %
95 08-05-2019 00:00:00 11.97 C 62.9333 %
96 09-05-2019 00:00:00 12.35167 C 66.7333 %
97 10-05-2019 00:00:00 12.92101 C 67.6218 %
98 11-05-2019 00:00:00 13.15833 C 68.0833 %
99 12-05-2019 00:00:00 12.12833 C 64.0833 %
100 13-05-2019 00:00:00 12.045 C 60.0000 %
Sensor: Nr:Datum:Temp:Feuchte:
G-T/H 101 14-05-2019 00:00:00 12.31083 C 59.7417 %
102 15-05-2019 00:00:00 12.7725 C 52.9833 %
103 16-05-2019 00:00:00 13.015 C 56.6333 %
104 17-05-2019 00:00:00 13.21917 C 63.1000 %
105 18-05-2019 00:00:00 14.04667 C 66.4250 %
106 19-05-2019 00:00:00 14.825 C 68.0750 %
107 20-05-2019 00:00:00 14.84583 C 68.8000 %
108 21-05-2019 00:00:00 14.15167 C 70.0167 %
109 22-05-2019 00:00:00 13.71167 C 69.7583 %
110 23-05-2019 00:00:00 15.29917 C 61.3750 %
111 24-05-2019 00:00:00 17.54 C 55.6333 %
112 25-05-2019 00:00:00 17.29083 C 56.6250 %
113 26-05-2019 00:00:00 16.44583 C 60.8167 %
114 27-05-2019 00:00:00 16.3925 C 64.3917 %
115 28-05-2019 00:00:00 15.71583 C 66.5333 %
116 29-05-2019 00:00:00 16.0475 C 54.4250 %
117 30-05-2019 00:00:00 15.75417 C 61.4167 %
118 31-05-2019 00:00:00 17.74167 C 65.2667 %
119 01-06-2019 00:00:00 18.025 C 65.0750 %
120 02-06-2019 00:00:00 18.60667 C 66.0917 %
121 03-06-2019 00:00:00 19.92333 C 65.8667 %
122 04-06-2019 00:00:00 19.69667 C 66.1500 %
123 05-06-2019 00:00:00 20.025 C 66.6917 %
124 06-06-2019 00:00:00 19.2775 C 64.1917 %
125 07-06-2019 00:00:00 17.86583 C 60.1250 %
Sensor: Nr:Datum:Temp:Feuchte:
G-T/H 126 08-06-2019 00:00:00 17.565 C 60.2333 %
127 09-06-2019 00:00:00 16.99667 C 61.5667 %
128 10-06-2019 00:00:00 17.96333 C 64.8583 %
129 11-06-2019 00:00:00 18.18333 C 66.3917 %
130 12-06-2019 00:00:00 17.70333 C 67.3917 %
131 13-06-2019 00:00:00 17.89167 C 58.1667 %
132 14-06-2019 00:00:00 19.59083 C 60.6083 %
133 15-06-2019 00:00:00 19.6625 C 64.9917 %
134 16-06-2019 00:00:00 19.56917 C 62.4417 %
135 17-06-2019 00:00:00 19.01167 C 62.8417 %
136 18-06-2019 00:00:00 21.23667 C 58.9250 %
137 19-06-2019 00:00:00 21.53167 C 61.1000 %
138 20-06-2019 00:00:00 20.7375 C 63.5667 %
139 21-06-2019 00:00:00 20.53083 C 52.5000 %
140 22-06-2019 00:00:00 20.16917 C 54.8083 %
141 23-06-2019 00:00:00 21.31917 C 57.1667 %
142 24-06-2019 00:00:00 23.94167 C 55.3000 %
143 25-06-2019 00:00:00 23.93083 C 58.5083 %
144 26-06-2019 00:00:00 24.37417 C 62.9417 %
145 27-06-2019 00:00:00 23.60667 C 60.8333 %
146 28-06-2019 00:00:00 22.21417 C 58.6667 %
147 29-06-2019 00:00:00 24.105 C 45.4667 %
148 30-06-2019 00:00:00 23.46833 C 52.6667 %
149 01-07-2019 00:00:00 23.14417 C 56.9333 %
150 02-07-2019 00:00:00 21.5975 C 49.7667 %
Sensor: Nr:Datum:Temp:Feuchte:
G-T/H 151 03-07-2019 00:00:00 20.46667 C 46.5000 %
152 04-07-2019 00:00:00 20.24 C 44.2750 %
153 05-07-2019 00:00:00 20.99583 C 47.4667 %
154 06-07-2019 00:00:00 21.055 C 53.0250 %
155 07-07-2019 00:00:00 20.39667 C 54.9083 %
156 08-07-2019 00:00:00 18.37167 C 51.1250 %
157 09-07-2019 00:00:00 18.10583 C 49.1417 %
158 10-07-2019 00:00:00 18.91917 C 42.0333 %
159 11-07-2019 00:00:00 18.91167 C 59.7083 %
160 12-07-2019 00:00:00 18.3025 C 73.7917 %
161 13-07-2019 00:00:00 18.47333 C 67.7417 %
162 14-07-2019 00:00:00 18.46917 C 65.0917 %
163 15-07-2019 00:00:00 18.2725 C 59.6250 %
164 16-07-2019 00:00:00 17.95917 C 58.3667 %
165 17-07-2019 00:00:00 18.23667 C 61.2917 %
166 18-07-2019 00:00:00 19.79417 C 58.3083 %
167 19-07-2019 00:00:00 19.79417 C 61.5917 %
168 20-07-2019 00:00:00 19.78583 C 63.8500 %
169 21-07-2019 00:00:00 20.41333 C 63.8583 %
170 22-07-2019 00:00:00 22.33167 C 54.5167 %
171 23-07-2019 00:00:00 22.5225 C 56.8667 %
172 24-07-2019 00:00:00 23.21833 C 58.3417 %
173 25-07-2019 00:00:00 24.345 C 57.0083 %
174 26-07-2019 00:00:00 24.17667 C 57.8500 %
175 27-07-2019 00:00:00 23.54 C 61.3083 %
Sensor: Nr:Datum:Temp:Feuchte:
G-T/H 176 28-07-2019 00:00:00 22.08333 C 64.8167 %
177 29-07-2019 00:00:00 21.58833 C 59.7917 %
178 30-07-2019 00:00:00 21.785 C 58.7750 %
179 31-07-2019 00:00:00 22.4025 C 50.4333 %
180 01-08-2019 00:00:00 21.77083 C 49.7000 %
181 02-08-2019 00:00:00 21.34583 C 55.7750 %
182 03-08-2019 00:00:00 20.90667 C 59.1167 %
183 04-08-2019 00:00:00 20.4525 C 59.4750 %
184 05-08-2019 00:00:00 22.07 C 57.0167 %
185 06-08-2019 00:00:00 21.48083 C 59.7417 %
186 07-08-2019 00:00:00 21.08 C 63.1500 %
187 08-08-2019 00:00:00 20.60333 C 62.6167 %
188 09-08-2019 00:00:00 20.50167 C 64.6000 %
189 10-08-2019 00:00:00 20.38917 C 65.0917 %
190 11-08-2019 00:00:00 19.8725 C 64.3750 %
191 12-08-2019 00:00:00 19.0475 C 65.6000 %
192 13-08-2019 00:00:00 18.645 C 58.8417 %
193 14-08-2019 00:00:00 18.54583 C 57.0833 %
194 15-08-2019 00:00:00 18.91583 C 62.6250 %
195 16-08-2019 00:00:00 18.59917 C 65.5583 %
196 17-08-2019 00:00:00 18.78167 C 67.1583 %
197 18-08-2019 00:00:00 19.07417 C 68.7167 %
198 19-08-2019 00:00:00 19.70167 C 61.8833 %
199 20-08-2019 00:00:00 18.7775 C 58.6500 %
200 21-08-2019 00:00:00 18.37 C 62.6500 %
Sensor: Nr:Datum:Temp:Feuchte:
G-T/H 201 22-08-2019 00:00:00 18.7725 C 58.7167 %
202 23-08-2019 00:00:00 19.34333 C 56.0250 %
203 24-08-2019 00:00:00 19.1825 C 58.5917 %
204 25-08-2019 00:00:00 19.53 C 63.3500 %
205 26-08-2019 00:00:00 21.84417 C 64.5833 %
206 27-08-2019 00:00:00 21.31417 C 66.1667 %
207 28-08-2019 00:00:00 21.07 C 66.6583 %
208 29-08-2019 00:00:00 21.03417 C 66.8417 %
209 30-08-2019 00:00:00 20.6775 C 66.8917 %
210 31-08-2019 00:00:00 20.2775 C 66.5917 %
211 01-09-2019 00:00:00 20.59167 C 65.4167 %
212 02-09-2019 00:00:00 18.59583 C 51.3417 %
213 03-09-2019 00:00:00 16.5475 C 53.5583 %
214 04-09-2019 00:00:00 18.68667 C 56.9667 %
215 05-09-2019 00:00:00 18.34667 C 60.0000 %
216 06-09-2019 00:00:00 17.44333 C 56.1750 %
217 07-09-2019 00:00:00 17.36583 C 60.4417 %
218 08-09-2019 00:00:00 16.54309 C 65.9350 %
219 09-09-2019 00:00:00 16.06067 C 66.7333 %
220 10-09-2019 00:00:00 15.23333 C 63.6597 %
221 11-09-2019 00:00:00 15.74097 C 61.0833 %
222 12-09-2019 00:00:00 17.93194 C 67.6319 %
223 13-09-2019 00:00:00 18.68472 C 70.9653 %
224 14-09-2019 00:00:00 18.01181 C 65.5903 %
225 15-09-2019 00:00:00 17.60347 C 61.9722 %
Sensor: Nr:Datum:Temp:Feuchte:
G-T/H 226 16-09-2019 00:00:00 17.78264 C 60.7361 %
227 17-09-2019 00:00:00 17.67431 C 62.7083 %
228 18-09-2019 00:00:00 15.39444 C 57.2778 %
229 19-09-2019 00:00:00 14.12361 C 57.3125 %
230 20-09-2019 00:00:00 13.22639 C 59.3056 %
231 21-09-2019 00:00:00 15.10833 C 52.5278 %
232 22-09-2019 00:00:00 15.13194 C 59.2083 %
233 23-09-2019 00:00:00 16.27153 C 64.4028 %
234 24-09-2019 00:00:00 16.11528 C 66.2778 %
235 25-09-2019 00:00:00 16.20556 C 67.8681 %
236 26-09-2019 00:00:00 16.33542 C 69.4097 %
237 27-09-2019 00:00:00 16.76458 C 69.3611 %
238 28-09-2019 00:00:00 16.47083 C 68.9792 %
239 29-09-2019 00:00:00 16.41458 C 69.6528 %
240 30-09-2019 00:00:00 16.64236 C 66.7917 %
241 01-10-2019 00:00:00 16.54167 C 68.3542 %
242 02-10-2019 00:00:00 16.15694 C 67.3056 %
243 03-10-2019 00:00:00 14.67222 C 66.7361 %
244 04-10-2019 00:00:00 14.15556 C 70.1319 %
245 05-10-2019 00:00:00 14.31875 C 71.1667 %
246 06-10-2019 00:00:00 13.69306 C 70.7847 %
247 07-10-2019 00:00:00 13.58056 C 72.7153 %
248 08-10-2019 00:00:00 14.14097 C 74.1597 %
249 09-10-2019 00:00:00 14.23472 C 74.0486 %
250 10-10-2019 00:00:00 14.00139 C 74.0278 %
Sensor: Nr:Datum:Temp:Feuchte:
G-T/H 251 11-10-2019 00:00:00 13.98819 C 74.3333 %
252 12-10-2019 00:00:00 14.71181 C 71.7639 %
253 13-10-2019 00:00:00 15.13472 C 74.9097 %
254 14-10-2019 00:00:00 16.34722 C 74.3958 %
255 15-10-2019 00:00:00 15.98125 C 73.6597 %
256 16-10-2019 00:00:00 15.42708 C 73.2986 %
257 17-10-2019 00:00:00 15.28056 C 74.7292 %
258 18-10-2019 00:00:00 15.18681 C 74.6042 %
259 19-10-2019 00:00:00 14.72222 C 74.1944 %
260 20-10-2019 00:00:00 14.40278 C 81.1597 %
261 21-10-2019 00:00:00 14.60625 C 80.9028 %
262 22-10-2019 00:00:00 14.62153 C 77.5000 %
263 23-10-2019 00:00:00 14.00764 C 76.3542 %
264 24-10-2019 00:00:00 14.52986 C 78.0139 %
265 25-10-2019 00:00:00 15.10694 C 74.8681 %
266 26-10-2019 00:00:00 14.99028 C 74.2153 %
267 27-10-2019 00:00:00 14.43933 C 74.9333 %
268 28-10-2019 00:00:00 12.81389 C 71.1806 %
269 29-10-2019 00:00:00 12.35556 C 71.6389 %
270 30-10-2019 00:00:00 10.98611 C 65.8194 %
271 31-10-2019 00:00:00 9.49097 C 64.1736 %
272 01-11-2019 00:00:00 9.67014 C 69.2569 %
273 02-11-2019 00:00:00 12.01181 C 74.2222 %
274 03-11-2019 00:00:00 12.91806 C 75.4861 %
275 04-11-2019 00:00:00 12.97569 C 75.6250 %
Sensor: Nr:Datum:Temp:Feuchte:
G-T/H 276 05-11-2019 00:00:00 12.58194 C 75.9444 %
277 06-11-2019 00:00:00 12.33194 C 75.6528 %
278 07-11-2019 00:00:00 12.18403 C 75.3403 %
279 08-11-2019 00:00:00 11.13611 C 70.1181 %
280 09-11-2019 00:00:00 11.02014 C 69.0972 %
281 10-11-2019 00:00:00 9.95556 C 68.3056 %
282 11-11-2019 00:00:00 9.96458 C 71.2708 %
283 12-11-2019 00:00:00 10.11458 C 72.0972 %
284 13-11-2019 00:00:00 10.0125 C 72.4097 %
285 14-11-2019 00:00:00 9.73403 C 68.3958 %
286 15-11-2019 00:00:00 9.68819 C 69.4028 %
287 16-11-2019 00:00:00 9.6125 C 68.7083 %
288 17-11-2019 00:00:00 9.03819 C 69.9306 %
289 18-11-2019 00:00:00 9.47361 C 72.2500 %
290 19-11-2019 00:00:00 9.40903 C 72.0833 %
291 20-11-2019 00:00:00 8.93333 C 71.1181 %
292 21-11-2019 00:00:00 8.40559 C 70.8182 %
293 22-11-2019 00:00:00 8.70556 C 72.6736 %
294 23-11-2019 00:00:00 9.32569 C 73.0972 %
295 24-11-2019 00:00:00 9.08333 C 72.0764 %
296 25-11-2019 00:00:00 9.04375 C 73.5069 %
297 26-11-2019 00:00:00 9.85139 C 74.9375 %
298 27-11-2019 00:00:00 10.87847 C 75.9236 %
299 28-11-2019 00:00:00 11.51597 C 75.5069 %
300 29-11-2019 00:00:00 11.25208 C 72.3542 %
Sensor: Nr:Datum:Temp:Feuchte:
G-T/H 301 30-11-2019 00:00:00 9.66736 C 68.9097 %
302 01-12-2019 00:00:00 8.81806 C 70.1806 %
303 02-12-2019 00:00:00 8.35278 C 70.5417 %
304 03-12-2019 00:00:00 8.74514 C 73.3472 %
305 04-12-2019 00:00:00 8.79375 C 71.8403 %
306 05-12-2019 00:00:00 7.92014 C 69.1458 %
307 06-12-2019 00:00:00 7.57292 C 70.7014 %
308 07-12-2019 00:00:00 8.97014 C 74.4514 %
309 08-12-2019 00:00:00 10.25694 C 75.1667 %
310 09-12-2019 00:00:00 10.48403 C 74.1111 %
311 10-12-2019 00:00:00 9.34028 C 71.5903 %
312 11-12-2019 00:00:00 8.75694 C 73.1250 %
313 12-12-2019 00:00:00 8.81042 C 73.2500 %
314 13-12-2019 00:00:00 8.51944 C 72.1458 %
315 14-12-2019 00:00:00 8.92153 C 73.0764 %
316 15-12-2019 00:00:00 9.56736 C 74.6667 %
317 16-12-2019 00:00:00 9.90486 C 75.1389 %
318 17-12-2019 00:00:00 10.43333 C 75.4583 %
319 18-12-2019 00:00:00 10.925 C 75.4861 %
320 19-12-2019 00:00:00 9.76667 C 73.6667 %
321 20-12-2019 00:00:00 9.69375 C 75.0208 %
322 21-12-2019 00:00:00 10.06458 C 74.5833 %
323 22-12-2019 00:00:00 10.1375 C 75.1528 %
324 23-12-2019 00:00:00 10.30417 C 75.3681 %
325 24-12-2019 00:00:00 10.12639 C 74.9375 %
Sensor: Nr:Datum:Temp:Feuchte:
G-T/H 326 25-12-2019 00:00:00 10.24444 C 75.9653 %
327 26-12-2019 00:00:00 9.92708 C 75.2569 %
328 27-12-2019 00:00:00 9.69444 C 75.5833 %
329 28-12-2019 00:00:00 8.37639 C 70.3194 %
330 29-12-2019 00:00:00 7.21528 C 69.6875 %
331 30-12-2019 00:00:00 7.16944 C 69.0486 %
332 31-12-2019 00:00:00 6.93194 C 69.9722 %
333 01-01-2020 00:00:00 7.23125 C 70.8403 %
334 02-01-2020 00:00:00 7.28958 C 70.5417 %
335 03-01-2020 00:00:00 8.41389 C 73.4792 %
336 04-01-2020 00:00:00 9.12431 C 73.5833 %
337 05-01-2020 00:00:00 9.42917 C 73.5694 %
338 06-01-2020 00:00:00 9.33958 C 72.1181 %
339 07-01-2020 00:00:00 8.74583 C 72.1111 %
340 08-01-2020 00:00:00 9.18611 C 74.0347 %
341 09-01-2020 00:00:00 10.3875 C 76.5556 %
342 10-01-2020 00:00:00 11.02153 C 75.1389 %
343 11-01-2020 00:00:00 10.04097 C 73.2014 %
344 12-01-2020 00:00:00 9.14861 C 72.8958 %
345 13-01-2020 00:00:00 9.30833 C 74.5139 %
346 14-01-2020 00:00:00 9.78958 C 75.6597 %
347 15-01-2020 00:00:00 10.59028 C 75.5972 %
348 16-01-2020 00:00:00 10.82222 C 75.8264 %
349 17-01-2020 00:00:00 9.87847 C 74.9583 %
350 18-01-2020 00:00:00 9.38125 C 74.1597 %
Sensor: Nr:Datum:Temp:Feuchte:
G-T/H 351 19-01-2020 00:00:00 8.86667 C 74.2569 %
352 20-01-2020 00:00:00 8.75 C 73.1111 %
353 21-01-2020 00:00:00 7.77014 C 69.7847 %
354 22-01-2020 00:00:00 7.17083 C 69.5903 %
355 23-01-2020 00:00:00 7.63472 C 70.8611 %
356 24-01-2020 00:00:00 7.71319 C 70.9097 %
357 25-01-2020 00:00:00 7.96806 C 71.5139 %
358 26-01-2020 00:00:00 7.98611 C 72.6597 %
359 27-01-2020 00:00:00 8.21875 C 74.7500 %
360 28-01-2020 00:00:00 8.85833 C 75.1458 %
361 29-01-2020 00:00:00 8.44306 C 74.0000 %
362 30-01-2020 00:00:00 8.61389 C 74.8750 %
363 31-01-2020 00:00:00 10.32431 C 76.3958 %
364 01-02-2020 00:00:00 11.40556 C 76.3681 %
365 02-02-2020 00:00:00 11.15903 C 73.6736 %

Maximal/Minimal-Werte vom 03.02.2019 - 02.02.2020

Sensor Min Max Avg
Temp
(Aussen-T/F)
-5 °C
29-12-2019  07:23:17
40.5 °C
25-07-2019  16:18:17
11.08 °C
Feuchte
(Aussen-T/F)
20 %
03-02-2019  15:04:17
75 %
27-02-2019  10:42:18
31.84 %
Temp
(G-T/H)
3.3 °C
19-03-2019  05:31:17
29.4 °C
29-06-2019  19:28:17
13.58 °C
Feuchte
(G-T/H)
25 %
29-06-2019  18:04:17
83 %
20-10-2019  15:57:17
67.03 %

Die Daten stammen von einer Davis Vantage Pro 2 Wetter-Station und werden unter Linux mit der Software wview2wettercgi und aufbereitet. Alle Angaben erfolgen ohne Gewähr für ihre Vollständigkeit oder Richtigkeit.
Kontakt: Rainer Krienke krienke@uni-koblenz.de . Meine Webseiten an der Uni Koblenz oder privat.
Version: $Revision: 0.78 $